Time,TemperatureF,DewpointF,PressureIn,WindDirection,WindDirectionDegrees,WindSpeedMPH,WindSpeedGustMPH,Humidity,HourlyPrecipIn,Conditions,Clouds,dailyrainin,SoftwareType,DateUTC
2013-07-20 00:09:00,80.7,77.0,30.11,NE,42,5.0,6.0,89,0.00,,,0.00,weatherlink.com 1.10,2013-07-20 04:09:00,
2013-07-20 00:24:00,80.3,77.0,30.10,NE,42,1.0,6.0,89,0.00,,,0.00,weatherlink.com 1.10,2013-07-20 04:24:00,
2013-07-20 00:39:00,79.9,77.0,30.10,NE,42,2.0,3.0,89,0.00,,,0.00,weatherlink.com 1.10,2013-07-20 04:39:00,
2013-07-20 00:54:00,79.6,76.0,30.10,NE,42,1.0,2.0,89,0.00,,,0.00,weatherlink.com 1.10,2013-07-20 04:54:00,
2013-07-20 01:09:00,79.4,76.0,30.09,NE,42,2.0,4.0,90,0.00,,,0.00,weatherlink.com 1.10,2013-07-20 05:09:00,
2013-07-20 01:24:00,79.2,76.0,30.09,NE,42,0.0,3.0,90,0.00,,,0.00,weatherlink.com 1.10,2013-07-20 05:24:00,
2013-07-20 01:40:00,78.9,76.0,30.08,NE,42,0.0,2.0,90,0.00,,,0.00,weatherlink.com 1.10,2013-07-20 05:40:00,
2013-07-20 01:55:00,78.7,76.0,30.07,NE,42,0.0,0.0,90,0.00,,,0.00,weatherlink.com 1.10,2013-07-20 05:55:00,
2013-07-20 02:10:00,78.5,76.0,30.06,NE,42,2.0,2.0,91,0.00,,,0.00,weatherlink.com 1.10,2013-07-20 06:10:00,
2013-07-20 02:25:00,78.3,76.0,30.07,NE,42,0.0,3.0,91,0.00,,,0.00,weatherlink.com 1.10,2013-07-20 06:25:00,
2013-07-20 02:40:00,78.2,75.0,30.06,NE,42,3.0,4.0,91,0.00,,,0.00,weatherlink.com 1.10,2013-07-20 06:40:00,
2013-07-20 02:55:00,78.1,75.0,30.05,NE,42,3.0,4.0,91,0.00,,,0.00,weatherlink.com 1.10,2013-07-20 06:55:00,
2013-07-20 03:10:00,78.0,76.0,30.05,NE,42,4.0,5.0,92,0.00,,,0.00,weatherlink.com 1.10,2013-07-20 07:10:00,
2013-07-20 03:25:00,77.8,75.0,30.05,NE,42,3.0,5.0,92,0.00,,,0.00,weatherlink.com 1.10,2013-07-20 07:25:00,
2013-07-20 03:40:00,77.7,75.0,30.04,NE,43,4.0,7.0,92,0.00,,,0.00,weatherlink.com 1.10,2013-07-20 07:40:00,
2013-07-20 03:55:00,77.4,75.0,30.04,NE,43,2.0,5.0,92,0.00,,,0.00,weatherlink.com 1.10,2013-07-20 07:55:00,
2013-07-20 04:10:00,77.1,75.0,30.04,NE,43,2.0,4.0,92,0.00,,,0.00,weatherlink.com 1.10,2013-07-20 08:10:00,
2013-07-20 04:25:00,76.9,75.0,30.04,NE,43,2.0,4.0,92,0.00,,,0.00,weatherlink.com 1.10,2013-07-20 08:25:00,
2013-07-20 04:40:00,76.7,75.0,30.04,NE,43,2.0,4.0,93,0.00,,,0.00,weatherlink.com 1.10,2013-07-20 08:40:00,
2013-07-20 04:55:00,76.7,75.0,30.04,NE,43,5.0,6.0,93,0.00,,,0.00,weatherlink.com 1.10,2013-07-20 08:55:00,
2013-07-20 05:10:00,76.8,75.0,30.05,NE,42,4.0,6.0,93,0.00,,,0.00,weatherlink.com 1.10,2013-07-20 09:10:00,
2013-07-20 05:25:00,76.9,75.0,30.05,NNE,21,4.0,7.0,93,0.00,,,0.00,weatherlink.com 1.10,2013-07-20 09:25:00,
2013-07-20 05:40:00,76.9,75.0,30.05,NNE,25,3.0,7.0,93,0.00,,,0.00,weatherlink.com 1.10,2013-07-20 09:40:00,
2013-07-20 05:55:00,77.0,75.0,30.05,NNE,25,3.0,5.0,93,0.00,,,0.00,weatherlink.com 1.10,2013-07-20 09:55:00,
2013-07-20 06:10:00,77.1,75.0,30.06,NNE,25,2.0,6.0,94,0.00,,,0.00,weatherlink.com 1.10,2013-07-20 10:10:00,
2013-07-20 06:25:00,77.0,75.0,30.06,NNE,25,3.0,5.0,94,0.00,,,0.00,weatherlink.com 1.10,2013-07-20 10:25:00,
2013-07-20 06:40:00,76.9,75.0,30.06,NNE,25,4.0,6.0,94,0.00,,,0.00,weatherlink.com 1.10,2013-07-20 10:40:00,
2013-07-20 06:55:00,76.9,75.0,30.06,NNE,25,3.0,3.0,94,0.00,,,0.00,weatherlink.com 1.10,2013-07-20 10:55:00,
2013-07-20 07:10:00,77.0,75.0,30.06,NNE,27,3.0,6.0,94,0.00,,,0.00,weatherlink.com 1.10,2013-07-20 11:10:00,
2013-07-20 07:25:00,77.2,75.0,30.06,NNE,27,1.0,5.0,94,0.00,,,0.00,weatherlink.com 1.10,2013-07-20 11:25:00,
2013-07-20 07:40:00,77.5,76.0,30.07,NNE,31,4.0,6.0,94,0.00,,,0.00,weatherlink.com 1.10,2013-07-20 11:40:00,
2013-07-20 07:55:00,77.8,76.0,30.07,NE,35,2.0,6.0,94,0.00,,,0.00,weatherlink.com 1.10,2013-07-20 11:55:00,
2013-07-20 08:10:00,78.1,77.0,30.08,NE,35,2.0,6.0,95,0.00,,,0.00,weatherlink.com 1.10,2013-07-20 12:10:00,
2013-07-20 08:25:00,78.4,77.0,30.08,NE,35,1.0,4.0,94,0.00,,,0.00,weatherlink.com 1.10,2013-07-20 12:25:00,
2013-07-20 08:40:00,78.7,77.0,30.08,ENE,73,2.0,8.0,95,0.00,,,0.00,weatherlink.com 1.10,2013-07-20 12:40:00,
2013-07-20 08:55:00,79.3,78.0,30.08,ENE,64,6.0,8.0,95,0.00,,,0.00,weatherlink.com 1.10,2013-07-20 12:55:00,
2013-07-20 09:10:00,80.3,79.0,30.08,ENE,70,7.0,9.0,95,0.00,,,0.00,weatherlink.com 1.10,2013-07-20 13:10:00,
2013-07-20 09:25:00,80.9,79.0,30.08,ENE,76,11.0,12.0,94,0.00,,,0.00,weatherlink.com 1.10,2013-07-20 13:25:00,
2013-07-20 09:40:00,81.7,80.0,30.08,SE,130,3.0,10.0,93,0.00,,,0.00,weatherlink.com 1.10,2013-07-20 13:40:00,
2013-07-20 09:55:00,82.3,80.0,30.09,SE,137,6.0,12.0,91,0.00,,,0.00,weatherlink.com 1.10,2013-07-20 13:55:00,
2013-07-20 10:10:00,83.0,80.0,30.10,SE,135,4.0,15.0,89,0.00,,,0.00,weatherlink.com 1.10,2013-07-20 14:10:00,
2013-07-20 10:25:00,83.8,80.0,30.10,SSE,161,10.0,14.0,87,0.00,,,0.00,weatherlink.com 1.10,2013-07-20 14:25:00,
2013-07-20 10:40:00,84.0,80.0,30.10,SE,137,5.0,12.0,86,0.00,,,0.00,weatherlink.com 1.10,2013-07-20 14:40:00,
2013-07-20 10:55:00,84.8,80.0,30.10,ESE,116,9.0,13.0,84,0.00,,,0.00,weatherlink.com 1.10,2013-07-20 14:55:00,
2013-07-20 11:10:00,85.5,79.0,30.10,SSE,164,5.0,12.0,82,0.00,,,0.00,weatherlink.com 1.10,2013-07-20 15:10:00,
2013-07-20 11:25:00,85.2,79.0,30.09,SSE,167,8.0,11.0,82,0.00,,,0.00,weatherlink.com 1.10,2013-07-20 15:25:00,
2013-07-20 11:40:00,85.6,80.0,30.09,SE,125,2.0,10.0,82,0.00,,,0.00,weatherlink.com 1.10,2013-07-20 15:40:00,
2013-07-20 11:55:00,86.1,80.0,30.09,SSE,155,8.0,10.0,81,0.00,,,0.00,weatherlink.com 1.10,2013-07-20 15:55:00,
2013-07-20 12:11:00,86.8,80.0,30.09,SE,129,8.0,11.0,79,0.00,,,0.00,weatherlink.com 1.10,2013-07-20 16:11:00,
2013-07-20 12:26:00,87.8,80.0,30.09,South,175,9.0,13.0,78,0.00,,,0.00,weatherlink.com 1.10,2013-07-20 16:26:00,
2013-07-20 12:41:00,87.7,79.0,30.09,SSW,193,8.0,13.0,76,0.00,,,0.00,weatherlink.com 1.10,2013-07-20 16:41:00,
2013-07-20 12:56:00,87.9,80.0,30.09,SW,222,6.0,14.0,76,0.00,,,0.00,weatherlink.com 1.10,2013-07-20 16:56:00,
2013-07-20 13:11:00,88.1,80.0,30.08,SSW,193,8.0,15.0,78,0.00,,,0.00,weatherlink.com 1.10,2013-07-20 17:11:00,
2013-07-20 13:26:00,88.5,80.0,30.07,SSE,166,11.0,14.0,76,0.00,,,0.00,weatherlink.com 1.10,2013-07-20 17:26:00,
2013-07-20 13:41:00,89.0,81.0,30.06,SW,232,4.0,16.0,76,0.00,,,0.00,weatherlink.com 1.10,2013-07-20 17:41:00,
2013-07-20 13:56:00,88.8,80.0,30.05,SW,229,9.0,16.0,76,0.00,,,0.00,weatherlink.com 1.10,2013-07-20 17:56:00,
2013-07-20 14:11:00,88.7,81.0,30.04,SSW,206,12.0,15.0,77,0.00,,,0.00,weatherlink.com 1.10,2013-07-20 18:11:00,
2013-07-20 14:41:00,88.1,80.0,30.03,SW,229,10.0,16.0,76,0.00,,,0.00,weatherlink.com 1.10,2013-07-20 18:41:00,
2013-07-20 14:56:00,88.1,80.0,30.04,SSW,206,7.0,16.0,76,0.00,,,0.00,weatherlink.com 1.10,2013-07-20 18:56:00,
2013-07-20 15:11:00,87.0,79.0,30.05,SW,222,9.0,13.0,77,0.00,,,0.00,weatherlink.com 1.10,2013-07-20 19:11:00,
2013-07-20 15:41:00,85.6,79.0,30.05,SSW,197,7.0,13.0,81,0.00,,,0.00,weatherlink.com 1.10,2013-07-20 19:41:00,
2013-07-20 15:56:00,84.9,79.0,30.06,South,175,1.0,10.0,83,0.00,,,0.00,weatherlink.com 1.10,2013-07-20 19:56:00,
2013-07-20 16:11:00,84.6,79.0,30.06,NNE,20,10.0,14.0,83,0.00,,,0.00,weatherlink.com 1.10,2013-07-20 20:11:00,
2013-07-20 16:26:00,83.2,76.0,30.06,NNE,33,8.0,12.0,79,0.00,,,0.00,weatherlink.com 1.10,2013-07-20 20:26:00,
2013-07-20 16:41:00,82.3,75.0,30.05,NE,37,3.0,7.0,79,0.00,,,0.00,weatherlink.com 1.10,2013-07-20 20:41:00,
2013-07-20 16:56:00,81.7,75.0,30.05,ENE,63,10.0,11.0,80,0.00,,,0.00,weatherlink.com 1.10,2013-07-20 20:56:00,
2013-07-20 17:11:00,81.2,74.0,30.05,ENE,69,8.0,11.0,79,0.00,,,0.00,weatherlink.com 1.10,2013-07-20 21:11:00,
2013-07-20 17:26:00,80.9,75.0,30.05,NE,51,6.0,12.0,81,0.00,,,0.00,weatherlink.com 1.10,2013-07-20 21:26:00,
2013-07-20 17:41:00,80.1,74.0,30.04,NE,39,6.0,11.0,82,0.00,,,0.00,weatherlink.com 1.10,2013-07-20 21:41:00,
2013-07-20 17:56:00,79.8,74.0,30.04,NE,39,4.0,5.0,83,0.00,,,0.00,weatherlink.com 1.10,2013-07-20 21:56:00,
2013-07-20 18:11:00,79.6,74.0,30.04,ENE,58,2.0,7.0,83,0.00,,,0.00,weatherlink.com 1.10,2013-07-20 22:11:00,
2013-07-20 18:41:00,79.6,75.0,30.05,ENE,61,0.0,6.0,85,0.00,,,0.00,weatherlink.com 1.10,2013-07-20 22:41:00,
2013-07-20 18:56:00,79.8,75.0,30.05,ENE,72,1.0,5.0,85,0.00,,,0.00,weatherlink.com 1.10,2013-07-20 22:56:00,
2013-07-20 19:11:00,80.0,75.0,30.05,ENE,70,1.0,5.0,85,0.00,,,0.00,weatherlink.com 1.10,2013-07-20 23:11:00,
2013-07-20 19:26:00,80.3,76.0,30.05,ENE,70,0.0,4.0,85,0.00,,,0.00,weatherlink.com 1.10,2013-07-20 23:26:00,
2013-07-20 19:41:00,80.3,76.0,30.05,ENE,74,4.0,8.0,85,0.00,,,0.00,weatherlink.com 1.10,2013-07-20 23:41:00,
2013-07-20 20:11:00,80.1,76.0,30.05,ENE,77,1.0,8.0,86,0.00,,,0.00,weatherlink.com 1.10,2013-07-21 00:11:00,
2013-07-20 20:26:00,79.8,75.0,30.05,East,79,3.0,5.0,86,0.00,,,0.00,weatherlink.com 1.10,2013-07-21 00:26:00,
2013-07-20 20:41:00,79.5,75.0,30.05,East,79,1.0,5.0,87,0.00,,,0.00,weatherlink.com 1.10,2013-07-21 00:41:00,
2013-07-20 20:56:00,79.3,75.0,30.05,East,79,3.0,5.0,87,0.00,,,0.00,weatherlink.com 1.10,2013-07-21 00:56:00,
2013-07-20 21:11:00,79.0,75.0,30.06,East,79,0.0,3.0,88,0.00,,,0.00,weatherlink.com 1.10,2013-07-21 01:11:00,
2013-07-20 21:26:00,78.9,75.0,30.06,East,79,0.0,4.0,88,0.00,,,0.00,weatherlink.com 1.10,2013-07-21 01:26:00,
2013-07-20 21:41:00,78.9,76.0,30.07,East,79,0.0,4.0,89,0.00,,,0.00,weatherlink.com 1.10,2013-07-21 01:41:00,
2013-07-20 21:56:00,78.9,76.0,30.07,East,79,1.0,4.0,89,0.00,,,0.00,weatherlink.com 1.10,2013-07-21 01:56:00,
2013-07-20 22:11:00,78.9,76.0,30.08,East,79,2.0,4.0,90,0.00,,,0.00,weatherlink.com 1.10,2013-07-21 02:11:00,
2013-07-20 22:26:00,79.1,76.0,30.08,East,80,1.0,3.0,90,0.00,,,0.00,weatherlink.com 1.10,2013-07-21 02:26:00,
2013-07-20 22:41:00,79.1,76.0,30.09,East,93,0.0,5.0,90,0.00,,,0.00,weatherlink.com 1.10,2013-07-21 02:41:00,
2013-07-20 22:56:00,79.1,76.0,30.09,East,93,0.0,3.0,90,0.00,,,0.00,weatherlink.com 1.10,2013-07-21 02:56:00,
2013-07-20 23:11:00,79.1,76.0,30.09,East,96,1.0,4.0,91,0.00,,,0.00,weatherlink.com 1.10,2013-07-21 03:11:00,
2013-07-20 23:26:00,79.1,76.0,30.09,ESE,102,4.0,5.0,91,0.00,,,0.00,weatherlink.com 1.10,2013-07-21 03:26:00,
2013-07-20 23:41:00,79.1,76.0,30.09,ESE,104,0.0,4.0,91,0.00,,,0.00,weatherlink.com 1.10,2013-07-21 03:41:00,
2013-07-20 23:56:00,79.1,76.0,30.09,ESE,104,0.0,5.0,91,0.00,,,0.00,weatherlink.com 1.10,2013-07-21 03:56:00,